This is the latest recevied weather packets stored in our database for station/object N2PPN. If no packets are shown the sender has not sent any weather packets the latest 10 day(s).
| Time | Temp. | Humidity | Pressure | Rain* | Wind** | Luminosity | Snow |
|---|---|---|---|---|---|---|---|
| 1778021229 | 17.22° C | 74% | 1012.3 hPa | 0 mm | - | 69 W/m² | - |
| 1778020927 | 17.22° C | 74% | 1012.4 hPa | 0 mm | - | 82 W/m² | - |
| 1778020625 | 16.67° C | 74% | 1012.2 hPa | 0 mm | - | 91 W/m² | - |
| 1778020320 | 17.22° C | 75% | 1012.4 hPa | 0 mm | - | 86 W/m² | - |
| 1778020016 | 17.22° C | 73% | 1012.3 hPa | 0 mm | - | 98 W/m² | - |
| 1778019712 | 17.22° C | 73% | 1012.3 hPa | 0 mm | - | 101 W/m² | - |
| 1778019410 | 17.78° C | 72% | 1012.2 hPa | 0 mm | - | 137 W/m² | - |
| 1778019106 | 17.78° C | 71% | 1012.1 hPa | 0 mm | - | 146 W/m² | - |
| 1778018804 | 17.78° C | 71% | 1012.3 hPa | 0 mm | - | 157 W/m² | - |
| 1778018501 | 17.78° C | 70% | 1012.1 hPa | 0 mm | - | 169 W/m² | - |
| 1778018199 | 17.78° C | 70% | 1011.9 hPa | 0 mm | - | 189 W/m² | - |
| 1778017897 | 17.78° C | 71% | 1012.1 hPa | 0 mm | - | 212 W/m² | - |
| 1778017595 | 17.78° C | 71% | 1012.2 hPa | 0 mm | - | 233 W/m² | - |
| 1778017291 | 17.78° C | 71% | 1012.3 hPa | 0 mm | - | 238 W/m² | - |
| 1778016989 | 18.33° C | 70% | 1012.1 hPa | 0 mm | - | 252 W/m² | - |
| 1778016685 | 18.33° C | 70% | 1012.2 hPa | 0 mm | - | 268 W/m² | - |
| 1778016381 | 18.33° C | 70% | 1011.7 hPa | 0 mm | - | 287 W/m² | - |
| 1778016079 | 18.33° C | 70% | 1011.8 hPa | 0 mm | - | 299 W/m² | - |
| 1778015776 | 18.89° C | 70% | 1011.8 hPa | 0 mm | - | 314 W/m² | - |
| 1778015473 | 18.33° C | 71% | 1011.8 hPa | 0 mm | - | 337 W/m² | - |
| 1778015170 | 18.33° C | 71% | 1011.8 hPa | 0 mm | - | 341 W/m² | - |
| 1778014867 | 18.33° C | 71% | 1011.8 hPa | 0 mm | - | 372 W/m² | - |
| 1778014564 | 18.33° C | 71% | 1011.8 hPa | 0 mm | - | 298 W/m² | - |
| 1778014262 | 17.78° C | 72% | 1011.9 hPa | 0 mm | - | 307 W/m² | - |
| 1778013959 | 17.78° C | 72% | 1011.9 hPa | 0 mm | - | 358 W/m² | - |
* Rain latest hour (hover to see other rain measurements)
** Current wind speed in m/s (hover to see current wind gust speed)